When you browse on this site, cookies collect data to enhance your experience and personalize the content and advertising you see.
Visit our Privacy Policy to learn more. By continuing to use the site, you agree to this use of cookies and data.
  • In Netherlands
  • List of Countries
  • For 7 days
  • Water Temperature
  • Weather Map
  • Weather Widgets
  • user-avatar
    Login

    Hourly Weather Plewno

    Today, 29 January, Wednesday

    Time Temperature Precipitation Wind Pressure Humidity
    00:00 0°C° 0.3 mm 7 mps 734 mmHg 85%
    01:00 0°C° 0.3 mm 7 mps 734 mmHg 84%
    02:00 0°C° 0 mm 7 mps 734 mmHg 82%
    03:00 -1°C° 0 mm 7 mps 733 mmHg 81%
    04:00 -1°C° 0 mm 7 mps 733 mmHg 79%
    05:00 -1°C° 0.1 mm 7 mps 734 mmHg 84%
    06:00 -2°C° 0.1 mm 7 mps 734 mmHg 89%
    07:00 -2°C° 0.1 mm 7 mps 735 mmHg 94%
    08:00 -2°C° 1.1 mm 7 mps 735 mmHg 94%
    09:00 -1°C° 1.1 mm 7 mps 735 mmHg 95%
    10:00 -1°C° 1.1 mm 7 mps 735 mmHg 95%
    11:00 -1°C° 0.1 mm 7 mps 736 mmHg 89%
    12:00 0°C° 0.1 mm 7 mps 737 mmHg 83%
    13:00 +2°C° 0.1 mm 7 mps 737 mmHg 76%
    14:00 +1°C° 0.1 mm 6 mps 738 mmHg 81%
    15:00 +1°C° 0.1 mm 6 mps 738 mmHg 86%
    16:00 +1°C° 0.1 mm 6 mps 738 mmHg 90%
    17:00 +1°C° 0.2 mm 6 mps 738 mmHg 90%
    18:00 +1°C° 0.2 mm 6 mps 739 mmHg 89%
    19:00 +1°C° 0.2 mm 6 mps 739 mmHg 89%
    20:00 +1°C° 0.1 mm 6 mps 740 mmHg 88%
    21:00 +1°C° 0.1 mm 6 mps 740 mmHg 87%
    22:00 +1°C° 0.1 mm 5 mps 740 mmHg 87%
    23:00 +1°C° 0 mm 5 mps 741 mmHg 86%

    Tomorrow, 30 January, Thursday

    Time Temperature Precipitation Wind Pressure Humidity
    00:00 +1°C° 0 mm 5 mps 741 mmHg 85%
    01:00 +2°C° 0 mm 5 mps 742 mmHg 84%
    02:00 +1°C° 0.1 mm 5 mps 742 mmHg 83%
    03:00 +1°C° 0.1 mm 6 mps 743 mmHg 82%
    04:00 +1°C° 0.1 mm 6 mps 743 mmHg 82%
    05:00 +1°C° 0 mm 6 mps 743 mmHg 82%
    06:00 0°C° 0 mm 5 mps 743 mmHg 83%
    07:00 0°C° 0 mm 5 mps 744 mmHg 84%
    08:00 0°C° 0 mm 5 mps 743 mmHg 83%
    09:00 -1°C° 0 mm 6 mps 743 mmHg 82%
    10:00 -1°C° 0 mm 6 mps 743 mmHg 80%
    11:00 -1°C° 0.4 mm 6 mps 742 mmHg 85%
    12:00 -1°C° 0.4 mm 6 mps 742 mmHg 90%
    13:00 +1°C° 0.4 mm 6 mps 741 mmHg 95%
    14:00 +1°C° 0.4 mm 6 mps 741 mmHg 93%
    15:00 +2°C° 0.4 mm 6 mps 740 mmHg 92%
    16:00 +3°C° 0.4 mm 5 mps 739 mmHg 90%
    17:00 +3°C° 0.2 mm 5 mps 740 mmHg 90%
    18:00 +3°C° 0.2 mm 5 mps 740 mmHg 90%
    19:00 +3°C° 0.2 mm 5 mps 740 mmHg 90%
    20:00 +3°C° 0 mm 5 mps 740 mmHg 89%
    21:00 +3°C° 0 mm 5 mps 739 mmHg 88%
    22:00 +3°C° 0 mm 4 mps 739 mmHg 87%
    23:00 +3°C° 0 mm 4 mps 739 mmHg 89%

    Day after tomorrow, 31 January, Friday

    Time Temperature Precipitation Wind Pressure Humidity
    00:00 +3°C° 0 mm 3 mps 739 mmHg 90%
    01:00 +3°C° 0 mm 3 mps 739 mmHg 91%
    02:00 +3°C° 0.1 mm 3 mps 739 mmHg 91%
    03:00 +3°C° 0.1 mm 3 mps 738 mmHg 92%
    04:00 +3°C° 0.1 mm 3 mps 737 mmHg 92%
    05:00 +3°C° 1.6 mm 3 mps 737 mmHg 94%
    06:00 +4°C° 1.6 mm 2 mps 737 mmHg 96%
    07:00 +5°C° 1.6 mm 1 mps 737 mmHg 98%
    08:00 +5°C° 0.2 mm 1 mps 738 mmHg 97%
    09:00 +5°C° 0.2 mm 1 mps 738 mmHg 96%
    10:00 +6°C° 0.2 mm 1 mps 739 mmHg 95%
    11:00 +6°C° 0 mm 1 mps 740 mmHg 94%
    12:00 +5°C° 0 mm 2 mps 741 mmHg 92%
    13:00 +6°C° 0 mm 2 mps 742 mmHg 91%
    14:00 +5°C° 0 mm 3 mps 742 mmHg 91%
    15:00 +5°C° 0 mm 3 mps 743 mmHg 90%
    16:00 +5°C° 0 mm 4 mps 743 mmHg 90%
    17:00 +5°C° 0 mm 4 mps 743 mmHg 89%
    18:00 +5°C° 0 mm 3 mps 744 mmHg 88%
    19:00 +5°C° 0 mm 3 mps 744 mmHg 87%
    20:00 +5°C° 0 mm 3 mps 744 mmHg 87%
    21:00 +5°C° 0 mm 4 mps 744 mmHg 86%
    22:00 +5°C° 0 mm 4 mps 744 mmHg 86%
    23:00 +5°C° 0 mm 4 mps 744 mmHg 87%

    1 February, Saturday

    Time Temperature Precipitation Wind Pressure Humidity
    00:00 +5°C° 0 mm 4 mps 744 mmHg 87%
    01:00 +5°C° 0 mm 4 mps 744 mmHg 88%
    02:00 +5°C° 0.2 mm 5 mps 743 mmHg 89%
    03:00 +6°C° 0.2 mm 5 mps 743 mmHg 90%
    04:00 +6°C° 0.2 mm 5 mps 742 mmHg 92%
    05:00 +6°C° 0.2 mm 5 mps 742 mmHg 92%
    06:00 +7°C° 0.2 mm 5 mps 742 mmHg 92%
    07:00 +7°C° 0.2 mm 5 mps 742 mmHg 93%
    08:00 +7°C° 0.1 mm 5 mps 742 mmHg 93%
    09:00 +7°C° 0.1 mm 5 mps 742 mmHg 93%
    10:00 +7°C° 0.1 mm 5 mps 742 mmHg 93%
    11:00 +7°C° 0.3 mm 4 mps 741 mmHg 94%
    12:00 +7°C° 0.3 mm 4 mps 741 mmHg 94%
    13:00 +8°C° 0.3 mm 4 mps 741 mmHg 95%
    14:00 +8°C° 0.7 mm 4 mps 740 mmHg 95%
    15:00 +8°C° 0.7 mm 4 mps 739 mmHg 96%
    16:00 +8°C° 0.7 mm 4 mps 739 mmHg 96%
    17:00 +8°C° 0.3 mm 4 mps 738 mmHg 95%
    18:00 +8°C° 0.3 mm 4 mps 738 mmHg 95%
    19:00 +8°C° 0.3 mm 4 mps 737 mmHg 94%
    20:00 +8°C° 0.5 mm 4 mps 736 mmHg 95%
    21:00 +8°C° 0.5 mm 5 mps 736 mmHg 95%
    22:00 +8°C° 0.5 mm 5 mps 735 mmHg 95%
    23:00 +8°C° 1.3 mm 6 mps 735 mmHg 91%

    2 February, Sunday

    Time Temperature Precipitation Wind Pressure Humidity
    00:00 +8°C° 1.3 mm 7 mps 736 mmHg 86%
    01:00 +7°C° 1.3 mm 8 mps 736 mmHg 82%
    02:00 +6°C° 0 mm 8 mps 737 mmHg 78%
    03:00 +5°C° 0 mm 8 mps 738 mmHg 75%
    04:00 +5°C° 0 mm 8 mps 740 mmHg 71%
    05:00 +4°C° 0 mm 8 mps 740 mmHg 73%
    06:00 +4°C° 0 mm 7 mps 741 mmHg 75%
    07:00 +4°C° 0 mm 7 mps 741 mmHg 76%
    08:00 +4°C° 0.3 mm 7 mps 742 mmHg 79%
    09:00 +4°C° 0.3 mm 7 mps 742 mmHg 81%
    10:00 +4°C° 0.3 mm 7 mps 743 mmHg 84%
    11:00 +5°C° 0.2 mm 7 mps 743 mmHg 80%
    12:00 +5°C° 0.2 mm 8 mps 743 mmHg 76%
    13:00 +5°C° 0.2 mm 8 mps 744 mmHg 72%
    14:00 +5°C° 0 mm 8 mps 744 mmHg 69%
    15:00 +5°C° 0 mm 8 mps 745 mmHg 67%
    16:00 +4°C° 0 mm 8 mps 745 mmHg 65%
    17:00 +4°C° 0 mm 7 mps 745 mmHg 69%
    18:00 +4°C° 0 mm 6 mps 746 mmHg 73%
    19:00 +4°C° 0 mm 6 mps 746 mmHg 77%
    20:00 +4°C° 0 mm 6 mps 746 mmHg 77%
    21:00 +3°C° 0 mm 6 mps 746 mmHg 77%
    22:00 +3°C° 0 mm 6 mps 746 mmHg 77%
    23:00 +3°C° 0 mm 6 mps 746 mmHg 80%

    3 February, Monday

    Time Temperature Precipitation Wind Pressure Humidity
    00:00 +3°C° 0 mm 5 mps 746 mmHg 82%
    01:00 +2°C° 0 mm 5 mps 746 mmHg 85%
    02:00 +4°C° 0 mm 4 mps 746 mmHg 87%
    03:00 +4°C° 0 mm 3 mps 746 mmHg 89%
    04:00 +4°C° 0 mm 3 mps 746 mmHg 90%
    05:00 +4°C° 0 mm 3 mps 746 mmHg 91%
    06:00 +4°C° 0 mm 3 mps 746 mmHg 92%
    07:00 +5°C° 0 mm 2 mps 746 mmHg 93%
    08:00 +5°C° 0 mm 2 mps 746 mmHg 92%
    09:00 +5°C° 0 mm 2 mps 746 mmHg 91%
    10:00 +6°C° 0 mm 2 mps 747 mmHg 90%
    11:00 +6°C° 0 mm 2 mps 747 mmHg 90%
    12:00 +6°C° 0 mm 2 mps 747 mmHg 90%
    13:00 +6°C° 0 mm 2 mps 747 mmHg 90%
    14:00 +7°C° 0 mm 3 mps 747 mmHg 90%
    15:00 +7°C° 0 mm 3 mps 747 mmHg 89%
    16:00 +7°C° 0 mm 3 mps 747 mmHg 88%
    17:00 +7°C° 0 mm 3 mps 747 mmHg 88%
    18:00 +5°C° 0 mm 3 mps 747 mmHg 89%
    19:00 +6°C° 0 mm 2 mps 747 mmHg 89%
    20:00 +6°C° 0 mm 2 mps 747 mmHg 90%
    21:00 +5°C° 0 mm 2 mps 747 mmHg 91%
    22:00 +6°C° 0 mm 1 mps 747 mmHg 92%
    23:00 +6°C° 0 mm 1 mps 747 mmHg 93%
    Show more